Lapse_Rate
7.2 6.9 6.6 6.5 6.4 6.6 6.7 6.6 6.4 6.3 6.5 6.3 6.1 6.0 6.4 6.6 6.6 6.7 6.7 6.5 6.3 6.3 6.3 6.2 6.1 5.9 6.1 5.9 5.9 6.0 5.9 5.8 5.7 5.6 5.4 5.4 5.5 5.8 5.8 5.9 6.0 6.1 6.3
7.0 7.0 6.6 6.7 6.5 6.7 6.8 6.8 6.5 6.6 6.3 6.4 6.4 6.4 6.8 6.8 6.7 6.8 6.7 6.5 6.4 6.3 6.2 6.0 6.0 6.3 6.4 6.4 6.4 6.3 6.2 6.0 5.8 5.7 5.7 5.6 5.7 5.7 5.9 5.9 6.0 6.1 6.1
7.3 6.9 6.5 6.6 6.4 6.6 6.7 6.7 6.5 6.7 6.5 6.5 6.7 6.8 6.8 6.8 6.7 6.7 6.9 6.5 6.5 6.3 6.2 6.3 6.3 6.5 6.5 6.4 6.3 6.3 6.2 6.1 5.8 5.7 5.6 5.6 5.8 5.9 5.9 5.8 6.0 6.1 6.1
6.9 6.8 6.5 6.7 6.7 6.6 6.7 6.8 6.7 6.5 6.5 6.7 6.7 6.8 6.8 6.8 6.7 6.9 6.9 6.6 6.5 6.3 6.4 6.3 6.4 6.4 6.2 6.1 6.0 6.0 6.0 6.0 5.9 5.8 5.8 5.8 5.6 5.6 5.8 5.6 5.6 5.8 6.0
6.5 6.5 6.6 6.6 6.5 6.4 6.4 6.5 6.5 6.6 6.5 6.5 6.5 6.8 6.8 6.7 6.7 7.1 6.9 6.7 6.6 6.6 6.4 6.3 6.1 6.1 5.9 5.8 5.8 5.8 5.8 5.9 5.8 5.6 5.6 5.5 5.5 5.5 5.4 5.6 5.5 5.5 5.7
6.6 6.4 6.2 6.1 5.8 6.0 6.0 6.1 6.3 6.3 6.4 6.6 6.4 6.5 6.4 6.8 6.6 7.1 7.2 6.8 6.7 6.6 6.4 6.1 5.9 5.8 5.8 5.6 5.8 5.8 5.7 5.8 5.8 5.7 5.5 5.7 5.7 5.6 5.6 5.7 5.7 5.7 5.5
6.0 5.6 5.6 5.8 5.6 5.6 5.6 5.7 5.7 5.8 6.1 5.7 6.0 6.3 6.2 6.7 6.8 7.3 6.9 6.7 6.7 6.4 6.1 6.0 5.8 5.7 5.6 5.4 5.5 5.6 5.7 5.7 5.8 5.8 5.7 5.7 5.8 5.7 5.8 5.7 5.8 5.6 5.6
5.9 5.9 5.5 5.3 5.6 5.1 4.8 5.0 5.5 5.6 5.8 6.2 6.0 6.0 6.2 7.4 7.4 6.9 6.7 6.4 6.2 6.1 6.2 5.8 5.7 5.7 5.6 5.7 5.7 5.7 5.9 6.0 6.0 6.1 6.0 6.0 5.9 5.8 5.8 5.9 6.0 6.1 6.0
5.1 4.8 5.2 5.5 5.8 5.2 4.9 5.0 5.3 5.5 5.9 5.6 6.0 6.7 7.5 7.4 6.9 6.6 6.4 6.3 6.2 6.2 6.1 6.1 5.9 5.8 5.7 5.6 5.4 5.3 5.4 5.5 5.8 5.9 5.8 5.8 5.7 5.7 5.8 6.0 6.2 6.3 6.3
5.7 5.1 4.7 5.6 5.6 4.5 4.1 4.8 5.0 5.7 5.7 6.1 6.9 7.6 7.2 6.9 6.6 6.5 6.4 6.3 6.1 6.0 5.9 5.8 5.7 5.7 5.6 5.5 5.4 5.1 5.2 5.5 5.6 5.9 5.9 6.0 6.0 6.2 6.1 6.2 6.2 6.3 6.2
5.5 5.1 5.0 4.9 4.8 4.6 4.6 4.8 5.3 5.5 6.0 7.0 7.6 7.4 7.0 6.9 6.7 6.7 6.5 6.2 5.9 5.8 5.8 5.6 5.6 5.7 5.7 5.8 5.8 5.4 5.3 5.3 5.7 5.9 5.9 5.9 6.0 6.3 6.3 6.3 6.3 6.4 6.4
5.7 5.6 4.8 4.8 5.1 4.4 4.6 5.6 5.5 5.7 6.9 7.5 7.4 7.1 7.1 6.7 6.3 6.2 6.0 6.0 6.0 5.8 5.6 5.7 5.8 5.7 5.7 5.8 5.8 5.6 5.6 5.8 5.9 5.9 6.0 6.1 6.2 6.2 6.4 6.7 6.7 6.6 6.6
5.7 5.3 4.8 4.9 4.9 4.7 4.9 5.6 6.8 7.3 7.2 7.2 6.9 6.6 6.5 6.3 6.2 6.2 6.3 5.9 5.8 5.8 5.9 5.8 5.7 5.6 5.7 5.6 5.6 5.7 5.8 5.9 5.9 6.0 6.0 6.0 6.0 6.0 6.3 6.4 6.8 6.9 6.8
5.7 5.7 5.4 5.5 5.5 6.1 6.8 7.2 7.1 7.2 7.1 6.9 6.6 6.6 6.6 6.5 6.3 6.2 6.1 6.0 5.9 5.9 5.8 5.7 5.7 5.5 5.4 5.2 5.3 5.3 5.4 5.5 5.6 5.7 5.8 5.9 6.1 5.9 5.7 6.1 6.6 7.0 7.1
6.3 7.4 7.3 6.6 6.7 6.9 6.7 6.7 7.1 7.2 7.1 6.8 6.7 6.7 6.7 6.5 6.3 6.1 6.0 6.0 5.8 5.8 5.7 5.6 5.5 5.4 5.3 5.3 5.3 5.3 5.3 5.4 5.6 5.9 5.9 5.9 5.9 5.9 5.8 5.7 5.9 6.4 7.1
7.1 7.2 7.0 6.8 6.9 6.9 7.0 6.9 6.7 6.7 6.7 6.8 6.7 6.7 6.5 6.5 6.2 6.1 6.0 5.9 5.8 5.8 5.7 5.6 5.5 5.6 5.6 5.6 5.6 5.7 5.7 5.8 5.9 6.1 6.1 6.1 6.0 6.0 5.9 6.2 6.2 6.4 6.6
7.5 7.3 7.1 7.2 7.1 7.0 6.8 6.8 6.7 6.7 6.7 6.8 6.9 6.9 6.6 6.5 6.4 6.2 6.0 5.8 5.8 5.9 5.9 6.0 6.1 6.1 6.1 6.2 6.2 6.2 6.2 6.2 6.3 6.4 6.5 6.5 6.5 6.4 6.5 6.5 6.7 6.8 6.7
7.1 7.1 7.1 7.1 7.0 6.8 6.6 6.6 6.6 7.0 7.0 7.1 7.0 6.8 6.6 6.6 6.5 6.3 6.2 6.2 6.1 6.0 6.2 6.3 6.3 6.4 6.4 6.5 6.6 6.6 6.6 6.7 6.8 6.8 6.8 6.7 6.7 6.9 7.0 6.9 6.8 6.8 6.8
7.2 7.2 7.3 7.1 6.9 6.9 6.9 6.8 7.0 7.0 7.1 6.9 6.8 6.8 6.7 6.6 6.5 6.4 6.3 6.2 6.2 6.2 6.2 6.3 6.4 6.6 6.8 6.9 6.9 6.9 6.8 6.9 7.0 7.0 7.1 7.1 7.3 7.2 7.1 6.9 6.7 6.6 6.6
7.4 7.3 7.3 7.4 7.4 7.2 7.2 7.2 6.9 6.9 6.9 6.8 6.7 6.7 6.5 6.4 6.4 6.3 6.2 6.1 6.2 6.3 6.4 6.5 6.6 6.9 7.0 7.0 6.9 6.9 6.9 7.0 7.0 7.1 7.2 7.3 7.3 7.1 6.8 6.5 6.3 6.2 6.1
7.4 7.4 7.4 7.5 7.7 7.6 7.4 7.1 7.0 6.8 6.7 6.8 6.8 6.7 6.4 6.3 6.2 6.2 6.1 6.2 6.3 6.4 6.5 6.7 6.8 6.8 7.0 7.0 6.9 7.0 7.0 7.0 7.1 7.1 7.1 7.1 6.9 6.8 6.7 6.7 6.5 6.4 6.1
7.4 7.5 7.6 7.6 7.4 7.2 7.1 6.9 6.7 6.6 6.8 7.0 6.9 6.6 6.4 6.2 6.0 6.1 6.1 6.2 6.5 6.6 6.8 6.7 6.8 7.0 7.0 6.9 6.8 6.8 6.9 7.0 7.1 7.1 7.0 6.9 6.8 6.6 6.3 6.0 6.0 5.9 5.7
7.5 7.5 7.5 7.6 7.4 7.1 7.0 6.9 6.9 6.9 7.0 7.0 6.8 6.5 6.2 6.2 6.2 6.2 6.3 6.5 6.6 6.7 6.7 6.7 6.8 6.9 6.8 6.8 6.6 6.5 6.6 6.8 6.9 6.9 6.9 7.0 6.9 6.6 6.3 5.8 5.4 5.2 4.9
8.0 7.6 7.5 7.7 7.5 7.3 7.2 7.0 6.7 6.6 6.9 6.8 6.6 6.4 6.4 6.4 6.4 6.4 6.4 6.4 6.5 6.3 6.2 6.1 6.1 6.3 6.4 6.5 6.4 6.3 6.4 6.3 6.3 6.4 6.3 6.2 6.0 5.7 5.3 5.0 4.7 4.4 4.1
7.7 7.6 7.4 7.4 7.3 7.1 7.1 7.1 6.6 6.9 6.8 6.8 6.7 6.6 6.4 6.3 6.3 6.2 6.2 6.4 6.4 6.1 6.3 6.1 6.0 6.2 6.3 6.5 6.3 6.2 6.1 6.1 6.1 6.0 6.0 5.8 5.4 4.9 4.4 4.2 4.0 4.1 4.0
7.4 7.3 7.4 7.3 7.3 7.2 7.1 6.8 6.9 6.7 6.7 6.9 6.8 6.6 6.6 6.5 6.1 6.2 6.4 6.5 6.3 6.4 6.1 6.3 6.2 6.1 5.9 5.9 5.8 5.9 6.0 6.0 6.0 5.9 5.7 5.3 5.1 4.8 4.4 3.9 3.9 4.2 4.3
Wind_Speed
13 16 22 22 24 24 23 23 24 25 26 25 25 26 26 26 25 23 23 24 24 24 24 23 24 20 19 18 15 13 12 12 15 19 19 18 19 19 18 18 17 16 18
15 20 24 26 26 26 25 22 23 26 26 25 23 25 25 25 24 23 23 23 23 24 24 24 25 24 21 21 19 17 15 14 16 18 18 18 18 19 20 20 19 19 18
16 18 21 25 26 25 25 26 21 23 26 25 24 23 23 24 23 23 23 22 23 23 25 25 25 25 26 26 25 23 20 17 17 16 15 16 17 18 19 20 19 18 18
13 16 19 24 25 24 24 26 25 23 24 24 23 22 23 23 23 22 22 21 21 22 22 22 26 25 25 24 22 21 21 18 18 17 17 15 14 18 18 18 18 19 19
10 16 20 24 25 25 24 24 24 23 22 23 20 22 23 23 23 23 21 21 20 20 19 20 23 24 22 23 20 17 18 19 17 16 14 13 13 16 17 18 18 18 19
9 15 21 24 25 25 24 23 23 22 21 22 19 21 21 22 21 20 20 19 19 17 17 17 18 22 22 23 21 19 20 17 17 17 16 13 14 15 16 17 17 17 17
4 9 20 26 26 27 26 23 20 19 20 20 19 19 20 19 19 18 18 16 16 15 13 13 15 21 22 24 23 22 20 18 17 16 15 14 13 14 14 15 15 15 16
12 18 11 19 19 22 24 21 19 18 19 19 19 19 19 18 17 16 15 14 14 13 12 13 14 17 21 21 22 19 16 17 15 14 12 12 13 14 14 15 15 16 17
23 20 20 19 23 15 19 19 20 18 17 16 16 16 17 18 18 16 14 13 13 13 13 12 14 15 18 19 20 19 17 15 15 11 9 9 12 13 14 15 17 17 18
15 19 21 15 18 6 6 13 14 16 16 16 17 18 20 18 16 14 11 9 9 13 13 12 12 16 19 20 19 18 14 14 11 9 9 9 10 11 11 14 15 17 18
12 15 18 19 21 5 5 8 11 12 14 17 17 18 17 14 12 10 9 7 9 10 9 11 16 18 19 18 16 16 14 10 9 7 6 6 7 8 9 10 13 14 15
14 13 12 18 21 14 8 7 9 9 11 13 15 13 12 11 8 9 7 7 9 14 18 22 23 20 17 15 14 15 13 10 8 4 5 6 6 6 6 9 11 12 12
15 10 10 11 11 8 3 10 10 13 12 12 13 12 11 8 8 11 12 16 19 17 17 18 17 16 16 15 14 14 15 16 14 11 7 9 10 6 4 6 8 10 11
10 11 10 8 6 10 8 9 8 8 10 11 13 10 13 12 11 10 12 13 15 15 15 13 14 15 16 15 13 13 16 16 16 14 14 10 7 6 1 4 6 7 8
11 12 11 7 5 7 6 7 8 9 11 12 12 13 16 12 8 13 12 14 11 11 11 10 12 12 13 13 12 12 15 15 17 18 16 14 10 7 3 4 4 4 6
9 10 8 7 8 10 6 9 9 8 8 12 14 15 14 15 14 12 10 10 11 11 10 12 10 9 9 10 10 13 13 16 17 18 19 18 14 13 9 7 6 5 5
9 9 7 7 9 8 7 8 9 11 11 11 13 15 16 17 15 13 10 9 8 10 12 10 10 10 8 7 7 10 12 15 17 18 20 20 17 18 19 12 8 8 8
7 7 7 7 7 7 7 8 10 12 13 12 14 13 13 15 17 14 10 9 12 11 11 8 4 3 4 4 2 4 9 13 15 16 19 19 22 19 16 15 11 8 7
8 7 7 7 8 7 8 8 9 11 10 11 14 13 14 16 15 16 12 11 11 10 8 4 3 2 2 2 3 4 6 7 10 13 15 17 18 19 17 13 10 10 8
7 7 8 7 8 7 6 7 6 6 7 11 11 14 15 17 16 16 12 10 8 6 3 3 3 2 2 2 3 4 4 5 8 10 10 13 16 17 18 16 12 9 10
6 8 8 8 6 7 5 4 3 4 3 3 7 13 16 18 15 14 11 8 7 4 3 3 2 3 4 2 3 3 2 3 4 5 8 9 12 11 13 12 10 11 10
12 12 10 11 10 7 6 3 3 4 2 2 6 9 14 13 12 12 11 7 8 4 5 4 3 2 2 4 2 2 2 3 1 3 3 4 4 5 8 11 9 10 9
13 14 14 14 13 9 7 5 4 5 5 2 1 2 4 11 12 13 11 10 9 6 4 3 2 3 2 3 4 3 1 3 2 2 3 2 1 3 8 6 8 8 6
15 15 16 16 14 10 10 8 12 8 7 4 3 3 6 10 12 12 12 11 9 7 5 2 2 2 3 2 2 3 3 3 3 3 2 2 3 3 3 3 6 7 6
13 14 12 12 12 10 11 12 9 5 2 3 4 7 6 8 11 11 10 10 8 8 6 6 4 4 2 2 2 1 1 1 1 2 3 3 3 3 4 4 7 6 11
9 10 9 10 12 9 11 12 13 11 8 7 5 5 4 3 5 9 11 10 9 8 5 6 5 4 3 3 2 3 3 3 3 3 2 4 3 3 2 5 5 9 10
Wind_Direction
157 154 140 129 120 116 115 113 112 109 108 109 111 111 108 105 104 103 99 96 93 88 84 82 78 69 61 60 61 72 86 92 84 71 63 61 64 61 53 54 44 42 44
148 150 141 137 132 130 122 113 114 116 111 113 113 110 110 109 108 105 102 99 95 89 86 79 74 68 55 54 60 83 95 93 79 74 72 68 63 61 59 55 44 41 39
149 148 140 136 132 128 123 117 114 115 117 118 114 115 115 114 111 110 104 99 94 89 83 81 76 67 58 57 67 79 92 90 72 63 63 64 66 62 60 57 50 44 40
142 135 142 136 131 127 125 124 125 123 122 121 123 122 116 116 116 112 108 104 97 91 85 81 77 68 61 55 64 75 86 83 80 74 66 60 57 59 58 55 50 44 42
132 138 141 132 128 127 127 126 126 125 128 124 127 122 121 121 122 116 112 106 100 89 81 76 77 74 62 62 65 77 86 86 83 78 70 66 63 58 57 54 49 44 42
115 139 140 133 133 131 129 125 126 129 129 124 128 122 125 124 123 117 110 104 99 88 75 66 64 72 66 62 69 86 84 78 74 69 60 50 63 60 57 56 52 46 43
92 131 142 138 139 135 126 122 126 130 127 125 129 125 124 124 119 108 106 107 100 94 84 68 68 75 77 71 76 98 87 80 72 59 54 45 44 52 56 52 50 45 38
39 56 104 114 109 113 113 120 128 130 132 133 130 132 127 119 113 114 115 116 111 95 88 80 69 75 87 80 82 99 87 83 78 71 58 50 48 46 50 54 53 51 52
88 76 51 68 83 82 108 122 129 141 128 127 128 122 122 125 127 132 135 123 113 106 90 81 71 74 97 93 92 103 94 83 79 73 65 57 61 54 57 60 61 58 56
107 101 109 79 81 116 109 127 124 123 130 132 132 140 137 136 140 127 120 115 102 81 79 73 72 72 84 87 88 99 99 83 79 74 64 53 61 63 68 71 75 74 71
107 123 135 122 113 178 228 142 135 137 138 144 142 148 141 133 125 126 123 107 80 78 81 86 88 89 88 84 85 82 74 72 75 79 68 54 62 67 71 79 81 80 77
125 127 134 150 165 207 218 144 144 140 149 145 147 142 128 128 129 120 96 86 85 96 96 99 96 90 83 78 64 60 61 58 46 41 31 13 36 59 81 86 81 77 76
144 151 188 185 181 192 191 161 167 155 161 155 151 149 147 137 117 107 87 94 103 99 91 91 82 78 76 74 64 59 66 54 46 45 26 20 8 18 77 102 94 88 80
166 174 181 199 186 183 174 160 172 156 160 163 172 164 148 130 115 105 100 98 96 93 88 87 84 81 75 70 61 68 60 55 44 41 39 29 5 4 47 121 107 86 76
178 180 189 191 171 188 163 169 165 181 184 191 170 149 139 124 117 111 103 98 92 89 89 88 86 82 74 70 61 69 59 51 51 47 34 25 22 360 27 114 98 78 73
180 184 189 195 180 174 168 172 182 180 149 137 139 147 150 135 129 118 111 98 86 86 84 88 84 76 65 64 67 54 61 66 59 54 48 42 43 39 53 69 61 53 64
193 189 189 184 177 173 178 166 167 151 145 133 143 153 145 141 130 120 108 89 91 99 99 88 73 71 57 66 62 59 73 66 58 53 49 47 49 49 48 47 53 56 43
190 181 173 178 165 157 152 146 141 146 145 142 142 146 141 133 127 111 101 94 109 104 95 83 76 71 59 61 65 53 61 69 67 59 54 53 57 57 54 45 60 47 28
181 169 158 153 150 143 133 138 128 130 135 143 142 137 137 136 128 115 113 127 121 104 88 95 62 108 97 51 98 76 68 66 66 65 62 63 59 57 47 34 28 18 356
172 161 148 151 141 133 118 108 87 107 121 139 134 134 141 136 134 127 124 116 110 101 84 79 99 71 113 98 77 75 80 69 67 66 75 74 71 57 45 35 22 18 20
158 157 155 143 145 138 141 136 125 148 139 104 142 146 141 143 141 129 114 116 107 96 106 80 106 64 42 36 88 41 54 46 47 59 81 70 59 49 45 35 36 24 6
178 173 159 163 164 171 162 153 129 134 105 125 146 153 147 143 138 122 123 110 96 96 69 63 76 87 73 10 107 77 355 328 358 48 73 63 40 33 36 42 34 25 7
188 178 175 175 176 176 157 117 84 70 66 76 128 123 135 129 111 111 102 91 75 68 58 38 42 77 112 19 37 124 68 245 339 336 20 31 352 37 14 10 11 4 1
194 193 187 180 178 175 157 152 164 172 171 183 159 130 91 107 110 104 95 89 86 75 61 40 69 88 101 118 11 31 62 136 195 311 320 300 334 356 321 309 326 334 342
184 196 195 182 180 175 175 175 167 164 152 122 112 118 108 105 103 103 100 87 81 90 97 100 93 91 90 133 145 127 38 13 134 165 259 297 336 280 269 260 309 317 327
187 191 194 181 188 180 182 185 177 171 156 142 146 138 127 116 101 100 94 88 103 117 145 154 153 140 145 136 155 165 179 199 216 194 223 258 235 279 269 288 291 313 340